This demonstration page uses our WeatherBlox Daily Observations layout. Learn more.

Left ArrowRight Arrow

34.16533, -84.80231

Hourly Observations for September 26, 2017

Temp ( °F °C ) Dew Point ( °F °C ) Humidity (%) Winds ( mph kmh ) Pressure ( in mb ) Visibility ( mi km ) Precip ( " mm )
12:53 am 00:53 Mostly Clear 64 17.8 64 17.8 100 100 Calm 29.95 1014 10 16 0.00 0.00
1:53 am 01:53 Clear 62 16.7 62 16.7 100 100 Calm 29.95 1014 10 16 0.00 0.00
2:53 am 02:53 Clear 62 16.7 62 16.7 100 100 Calm 29.95 1014 9 14 0.00 0.00
3:53 am 03:53 Clear 62 16.7 62 16.7 100 100 Calm 29.95 1014 10 16 0.00 0.00
4:53 am 04:53 Clear 61 16.1 61 16.1 100 100 Calm 29.95 1014 8 13 0.00 0.00
5:53 am 05:53 Clear 61 16.1 61 16.1 100 100 Calm 29.96 1014 8 13 0.00 0.00
6:50 am 06:50 Partly Cloudy 61 16 61 16 100 100 Calm 30.00 1016 9 14 0.00 0.00
6:53 am 06:53 Mostly Cloudy 60 15.6 60 15.6 100 100 Calm 29.97 1015 9 14 0.00 0.00
7:53 am 07:53 Mostly Cloudy with Mist and Fog 61 16.1 61 16.1 100 100 Calm 29.99 1016 2 3 0.00 0.00
8:02 am 08:02 Cloudy 61 16.1 61 16.1 100 100 Calm 30.03 1017 8 13 0.00 0.00
8:26 am 08:26 Mostly Cloudy with Mist and Fog 63 17.2 63 17.2 100 100 Calm 30.03 1017 2 3 0.00 0.00
8:35 am 08:35 Mostly Cloudy with Mist and Fog 64 17.8 64 17.8 100 100 Calm 30.03 1017 3 5 0.00 0.00
8:53 am 08:53 Partly Cloudy 65 18.3 65 18.3 100 100 Calm 30.01 1016 9 14 0.00 0.00
9:53 am 09:53 Sunny 71 21.7 66 18.9 84 84 Calm 30.01 1016 10 16 0.00 0.00
10:53 am 10:53 Sunny 77 25 67 19.4 71 71 Calm 30.00 1016 10 16 0.00 0.00
11:53 am 11:53 Sunny 82 27.8 65 18.3 56 56 Calm 29.99 1016 10 16 0.00 0.00
12:53 pm 12:53 Sunny 84 28.9 65 18.3 53 53 NE 3 6 29.97 1015 10 16 0.00 0.00
1:53 pm 13:53 Mostly Sunny 85 29.4 65 18.3 51 51 VRB 5 7 29.96 1014 10 16 0.00 0.00
2:53 pm 14:53 Sunny 86 30 65 18.3 49 49 N 5 7 29.93 1014 10 16 0.00 0.00
3:53 pm 15:53 Mostly Sunny 87 30.6 64 17.8 46 46 VRB 6 9 29.91 1013 10 16 0.00 0.00
4:53 pm 16:53 Mostly Sunny 86 30 63 17.2 46 46 VRB 5 7 29.90 1012 10 16 0.00 0.00
5:53 pm 17:53 Sunny 85 29.4 63 17.2 48 48 N 10 17 29.90 1013 10 16 0.00 0.00
6:53 pm 18:53 Sunny 81 27.2 65 18.3 58 58 Calm 29.89 1012 10 16 0.00 0.00
7:53 pm 19:53 Clear 70 21.1 67 19.4 90 90 Calm 29.91 1013 10 16 0.00 0.00
8:53 pm 20:53 Clear 68 20 67 19.4 96 96 Calm 29.92 1013 10 16 0.00 0.00
9:53 pm 21:53 Clear 68 20 67 19.4 96 96 Calm 29.93 1014 10 16 0.00 0.00
10:53 pm 22:53 Clear 66 18.9 66 18.9 100 100 Calm 29.94 1014 10 16 0.00 0.00
11:53 pm 23:53 Clear 65 18.3 65 18.3 100 100 Calm 29.93 1014 10 16 0.00 0.00

Powered by AerisWeather